Location: Unspecified
(41.1850°N, 73.2650°W)
Time: 21:51:48
(UTC+00:00)

Cosmos 1844 Rocket - Pass Details

Date: 14 December 2025
Orbit: 822 x 845 km, 71.0° (Epoch: 11 January)

Event Time Altitude Azimuth Distance (km) Brightness Sun altitude
Rises 22:26:56 0° 349° (NNW) 3,404 5.8 -11.3°
Reaches altitude 10° 22:30:20 10° 9° (N) 2,469 4.8 -11.9°
Maximum altitude 22:33:56 17° 49° (NE) 2,020 4.1 -12.6°
Enters shadow 22:34:36 17° 57° (ENE) 2,038 4.1 -12.7°
